Waarnemingen

Advertentie
Mijn weer
Brüssel, België (6451): temperatuur & dauwpunt: 16.06.2018 19:00:00 - 22.06.2018 19:00:00 (CEST)Brüssel, België (6451): windsnelheid & windstoten: 16.06.2018 19:00:00 - 22.06.2018 19:00:00 (CEST)Brüssel, België (6451): windrichting: 16.06.2018 19:00:00 - 22.06.2018 19:00:00 (CEST)Brüssel, België (6451): luchtdruk: 16.06.2018 19:00:00 - 22.06.2018 19:00:00 (CEST)Brüssel, België (6451): zicht: 16.06.2018 19:00:00 - 22.06.2018 19:00:00 (CEST)
Datum & Tijd tt [°C] td [°C] ff [km/u] ff [kn] fx [km/u] fx [kn] dd ppp [hPa] vv [km]
22.06.2018 19:00:00 14,3 7,1 21 11 32 18 NNW 1029,3 10
22.06.2018 18:00:00 15,4 7,3 22 12 36 19 NNW 1029,1 10
22.06.2018 17:00:00 14,5 7,0 21 11 - - NNW 1029,2 10
22.06.2018 16:00:00 15,1 6,9 22 12 40 21 NNW 1028,9 10
22.06.2018 15:00:00 15,3 5,7 24 13 40 21 NNW 1028,7 10
22.06.2018 14:00:00 15,2 6,0 22 12 - - NNW 1028,8 30
22.06.2018 13:00:00 15,4 5,1 24 13 40 21 NNW 1028,4 10
22.06.2018 12:00:00 15,9 5,3 25 14 47 25 NNW 1028,3 50
22.06.2018 11:00:00 16,3 3,8 29 16 - - NW 1027,8 10
22.06.2018 10:00:00 14,3 7,1 21 11 36 19 WNW 1027,7 10
22.06.2018 09:00:00 13,4 7,4 21 11 36 19 WNW 1027,5 10
22.06.2018 08:00:00 11,6 6,3 16 9 - - W 1027,3 10
22.06.2018 07:00:00 10,8 5,7 16 9 25 14 W 1027,2 10
22.06.2018 06:00:00 10,0 5,3 16 9 25 14 W 1027,2 10
22.06.2018 05:00:00 9,1 5,3 13 7 - - W 1027,0 10
22.06.2018 04:00:00 9,3 5,2 13 7 22 12 W 1027,0 10
22.06.2018 03:00:00 9,2 5,1 11 6 18 10 W 1027,2 10
22.06.2018 02:00:00 9,6 5,2 11 6 - - W 1027,4 10
22.06.2018 01:00:00 9,1 5,5 9 5 14 8 W 1027,5 10
22.06.2018 00:00:00 9,6 5,5 9 5 22 12 WNW 1027,6 10
21.06.2018 23:00:00 10,9 5,5 15 8 - - NW 1027,5 10
21.06.2018 22:00:00 11,6 5,6 15 8 36 19 NW 1027,0 10
21.06.2018 21:00:00 12,9 4,6 22 12 43 23 NNW 1026,8 10
21.06.2018 20:00:00 13,2 5,3 26 14 - - NNW 1026,3 10
21.06.2018 19:00:00 13,6 6,7 22 12 40 21 NNW 1026,1 10
21.06.2018 18:00:00 14,1 6,4 22 12 43 23 NNW 1025,8 10
21.06.2018 17:00:00 15,4 3,9 28 15 - - NNW 1025,1 10
21.06.2018 16:00:00 15,5 4,1 29 16 47 25 NNW 1024,5 10
21.06.2018 15:00:00 15,7 4,9 31 17 47 25 NW 1023,8 10
21.06.2018 14:00:00 15,6 5,2 25 14 - - NNW 1023,0 50
21.06.2018 13:00:00 15,6 5,3 28 15 40 21 NW 1022,5 10
21.06.2018 12:00:00 17,1 5,8 24 13 43 23 NW 1021,7 10
21.06.2018 11:00:00 15,4 6,6 24 13 - - NNW 1021,4 10
21.06.2018 10:00:00 14,5 7,5 24 13 47 25 NW 1020,6 10
21.06.2018 09:00:00 14,5 10,3 24 13 43 23 NW 1019,6 10
21.06.2018 08:00:00 15,9 12,5 26 14 - - WNW 1018,4 10
21.06.2018 07:00:00 16,1 13,7 16 9 29 16 WNW 1017,8 10
21.06.2018 06:00:00 16,2 13,8 16 9 29 16 W 1017,3 10
21.06.2018 05:00:00 16,3 13,9 18 10 - - W 1017,3 10
21.06.2018 04:00:00 16,4 13,8 15 8 29 16 W 1017,3 10
21.06.2018 03:00:00 17,4 13,7 18 10 29 16 WZW 1017,4 10
21.06.2018 02:00:00 17,8 13,7 11 6 - - WZW 1017,9 30
21.06.2018 01:00:00 18,6 13,5 11 6 22 12 WZW 1018,5 10
21.06.2018 00:00:00 19,3 12,8 11 6 18 10 WZW 1018,5 10
20.06.2018 23:00:00 20,1 14,2 11 6 - - WZW 1018,9 10
20.06.2018 22:00:00 22,0 14,2 11 6 22 12 W 1018,7 10
20.06.2018 21:00:00 23,5 14,4 16 9 25 14 W 1018,7 10
20.06.2018 20:00:00 24,9 14,5 15 8 - - W 1019,1 10
20.06.2018 19:00:00 25,6 14,3 15 8 29 16 WNW 1019,3 10
20.06.2018 18:00:00 26,2 14,7 11 6 29 16 WZW 1019,7 10
20.06.2018 17:00:00 26,5 14,7 15 8 - - W 1020,2 10
20.06.2018 16:00:00 24,8 14,4 15 8 32 18 W 1020,5 10
20.06.2018 15:00:00 25,3 15,2 9 5 25 14 - 1020,9 10
20.06.2018 14:00:00 24,5 15,4 11 6 - - W 1021,6 10
20.06.2018 13:00:00 22,5 14,2 11 6 22 12 ZW 1022,2 10
20.06.2018 12:00:00 21,1 14,7 9 5 22 12 WZW 1022,5 10
20.06.2018 11:00:00 20,3 14,6 11 6 - - ZW 1022,8 10
20.06.2018 10:00:00 18,5 14,4 11 6 22 12 ZW 1023,1 30
20.06.2018 09:00:00 17,5 14,0 13 7 22 12 ZZW 1023,0 10
20.06.2018 08:00:00 17,1 14,1 15 8 - - ZW 1022,9 10
20.06.2018 07:00:00 16,9 14,0 11 6 25 14 ZW 1023,1 10
20.06.2018 06:00:00 16,8 13,9 9 5 18 10 WZW 1023,1 10
20.06.2018 05:00:00 16,9 13,7 11 6 - - ZW 1023,3 10
20.06.2018 04:00:00 17,0 14,1 8 4 11 6 Z 1023,6 10
20.06.2018 03:00:00 17,2 14,2 7 4 11 6 ZZW 1024,0 20
20.06.2018 02:00:00 17,7 14,3 8 4 - - WZW 1024,3 10
20.06.2018 01:00:00 18,0 14,6 9 5 14 8 WZW 1024,5 10
20.06.2018 00:00:00 17,9 15,1 5 3 11 6 ZW 1024,7 10
19.06.2018 23:00:00 17,9 15,6 8 4 - - WZW 1024,8 10
19.06.2018 22:00:00 18,6 15,3 8 4 14 8 ZW 1024,5 10
19.06.2018 21:00:00 19,1 14,8 9 5 11 6 WZW 1024,3 10
19.06.2018 20:00:00 19,7 14,8 8 4 - - WZW 1024,4 10
19.06.2018 19:00:00 20,0 14,8 9 5 14 8 WZW 1024,6 10
19.06.2018 18:00:00 19,8 14,9 7 4 22 12 ZW 1024,9 20
19.06.2018 17:00:00 20,1 15,0 11 6 - - WZW 1025,0 10
19.06.2018 16:00:00 19,7 15,0 9 5 14 8 WZW 1025,1 10
19.06.2018 15:00:00 19,2 15,0 8 4 14 8 WZW 1025,2 10
19.06.2018 14:00:00 18,9 15,2 9 5 - - W 1025,3 10
19.06.2018 13:00:00 18,1 15,3 9 5 18 10 ZW 1025,2 10
19.06.2018 12:00:00 17,6 15,4 11 6 18 10 W 1024,9 10
19.06.2018 11:00:00 17,0 15,3 11 6 - - W 1024,9 5
19.06.2018 10:00:00 17,4 14,5 13 7 25 14 WZW 1024,6 10
19.06.2018 09:00:00 17,1 14,4 16 9 25 14 WZW 1024,0 10
19.06.2018 08:00:00 16,6 14,1 15 8 - - WZW 1023,7 10
19.06.2018 07:00:00 16,2 13,9 15 8 25 14 ZW 1023,4 10
19.06.2018 06:00:00 15,7 13,4 13 7 29 16 ZW 1023,2 10
19.06.2018 05:00:00 15,2 12,9 18 10 - - WZW 1022,9 25
19.06.2018 04:00:00 14,3 12,0 11 6 25 14 WZW 1022,6 25
19.06.2018 03:00:00 14,1 11,4 18 10 29 16 ZW 1022,3 40
19.06.2018 02:00:00 14,5 10,9 18 10 - - WZW 1022,3 40
19.06.2018 01:00:00 15,0 10,9 16 9 29 16 WZW 1022,4 10
19.06.2018 00:00:00 16,1 11,4 16 9 29 16 WZW 1022,7 10
18.06.2018 23:00:00 16,5 11,3 13 7 - - WZW 1022,3 10
18.06.2018 22:00:00 17,4 11,1 16 9 29 16 WZW 1021,8 10
18.06.2018 21:00:00 18,1 11,3 21 11 36 19 WZW 1021,6 10
18.06.2018 20:00:00 19,3 11,8 21 11 - - WZW 1021,3 10
18.06.2018 19:00:00 19,5 12,2 22 12 36 19 WZW 1021,1 10
18.06.2018 18:00:00 19,2 12,2 21 11 36 19 WZW 1021,4 10
18.06.2018 17:00:00 19,6 12,5 26 14 - - W 1021,6 10
18.06.2018 16:00:00 19,4 12,8 25 14 40 21 W 1021,6 25
18.06.2018 15:00:00 20,2 14,8 18 10 32 18 WZW 1021,2 10
18.06.2018 14:00:00 19,1 15,0 18 10 - - WZW 1021,4 10
18.06.2018 13:00:00 17,8 14,9 15 8 29 16 WZW 1021,4 9
18.06.2018 12:00:00 17,7 14,4 18 10 32 18 ZW 1021,0 10
18.06.2018 11:00:00 17,4 14,5 16 9 - - ZW 1020,8 10
18.06.2018 10:00:00 17,7 13,8 18 10 32 18 ZW 1020,4 10
18.06.2018 09:00:00 16,9 13,3 15 8 25 14 ZW 1020,2 10
18.06.2018 08:00:00 16,0 13,2 15 8 - - ZW 1020,0 10
18.06.2018 07:00:00 15,1 12,8 15 8 32 18 WZW 1020,2 10
18.06.2018 06:00:00 15,2 11,4 9 5 14 8 ZZW 1019,9 10
18.06.2018 05:00:00 15,0 11,3 8 4 - - Z 1019,6 10
18.06.2018 04:00:00 15,0 11,3 8 4 18 10 Z 1019,9 10
18.06.2018 03:00:00 15,1 11,1 8 4 7 4 Z 1019,9 10
18.06.2018 02:00:00 15,1 10,8 5 3 - - ZZW 1020,2 10
18.06.2018 01:00:00 15,3 10,8 5 3 22 12 Z 1020,3 10
18.06.2018 00:00:00 15,6 10,8 7 4 14 8 ZW 1020,6 40
17.06.2018 23:00:00 16,0 9,7 9 5 - - ZZW 1020,4 10
17.06.2018 22:00:00 16,6 9,0 13 7 29 16 WZW 1020,2 10
17.06.2018 21:00:00 16,8 8,6 18 10 32 18 WZW 1020,1 10
17.06.2018 20:00:00 17,7 8,1 21 11 - - WZW 1019,6 10
17.06.2018 19:00:00 18,1 8,4 16 9 29 16 W 1019,5 10
17.06.2018 18:00:00 18,1 9,6 18 10 29 16 WZW 1019,3 10
17.06.2018 17:00:00 17,4 8,6 21 11 - - WZW 1019,3 10
17.06.2018 16:00:00 17,7 8,9 21 11 29 16 ZW 1019,4 10
17.06.2018 15:00:00 16,0 9,2 22 12 36 19 WZW 1019,4 10
17.06.2018 14:00:00 16,6 9,3 16 9 - - WZW 1019,0 10
17.06.2018 13:00:00 16,1 9,7 18 10 29 16 WZW 1018,9 10
17.06.2018 12:00:00 15,5 8,9 16 9 29 16 WZW 1018,7 10
17.06.2018 11:00:00 15,9 8,9 21 11 - - WZW 1018,7 10
17.06.2018 10:00:00 15,1 9,4 18 10 29 16 WZW 1018,5 10
17.06.2018 09:00:00 14,9 10,0 16 9 25 14 WZW 1018,0 10
17.06.2018 08:00:00 14,4 9,6 16 9 - - WZW 1017,3 10
17.06.2018 07:00:00 13,7 9,7 16 9 25 14 WZW 1017,2 10
17.06.2018 06:00:00 13,8 9,2 15 8 29 16 WZW 1017,2 10
17.06.2018 05:00:00 14,9 9,9 16 9 - - WZW 1017,0 10
17.06.2018 04:00:00 14,7 9,1 15 8 29 16 ZW 1016,6 10
17.06.2018 03:00:00 15,7 9,6 16 9 29 16 WZW 1016,9 10
17.06.2018 02:00:00 14,6 7,6 9 5 - - Z 1016,6 10
17.06.2018 01:00:00 14,0 8,0 9 5 18 10 Z 1016,7 10
17.06.2018 00:00:00 14,2 7,5 11 6 22 12 WZW 1016,8 50
16.06.2018 23:00:00 16,0 7,7 13 7 - - W 1016,7 10
16.06.2018 22:00:00 17,2 8,1 18 10 36 19 WZW 1016,4 10
16.06.2018 21:00:00 18,3 8,5 15 8 32 18 W 1016,1 10
16.06.2018 20:00:00 19,3 9,2 15 8 - - W 1015,8 10
16.06.2018 19:00:00 19,4 9,6 21 11 29 16 W 1015,7 10

tt = temperatuur
td = dauwpunt
ff = windsnelheid
fx = windstoten
dd = windrichting
ppp = luchtdruk
vv = zicht

Weerstations in de omgeving